Weather History for Pine Ridge, SD

Change the Weather History Date:

Saturday, March 2, 2013

  Actual Average Record
Temperature  
Mean Temperature 46 °F 31 °F  
Max Temperature 61 °F 45 °F 62 °F (2009)
Min Temperature 31 °F 18 °F -11 °F (2002)
Degree Days  
Heating Degree Days 19 34  
Month to date heating degree days 52 68  
Since 1 July heating degree days 5153 5418  
Cooling Degree Days 0 0  
Month to date cooling degree days 0 0  
Year to date cooling degree days 0 0  
Moisture  
Dew Point 29 °F    
Average Humidity 56    
Maximum Humidity 82    
Minimum Humidity 29    
Precipitation  
Precipitation 0.00 in 0.02 in 0.07 in (1999)
Month to date precipitation 0.00 0.03  
Year to date precipitation 0.94 0.82  
Sea Level Pressure  
Sea Level Pressure 30.12 in    
Wind  
Wind Speed 5 mph (WNW)    
Max Wind Speed 16 mph    
Max Gust Speed 21 mph    
Visibility 10 miles    
Events      
T = Trace of Precipitation, MM = Missing Value Source: NWS Daily Summary

Daily Weather History Graph

Daily Weather History Graph

Search for Another Location

Airport:

Trip Planner

Search our weather history database for the weather conditions in past years. The results will help you decide how hot, cold, wet, or windy it might be!

Date:

Astronomy

Mar. 02, 2013 Rise Set
Actual Time 6:23 AM MST 5:41 PM MST
Civil Twilight 5:55 AM MST 6:09 PM MST
Nautical Twilight 5:22 AM MST 6:42 PM MST
Astronomical Twilight 4:49 AM MST 7:15 PM MST
Moon 11:32 PM MST (3/2) 8:44 AM MST (3/2)
Length of Visible Light 12h 14m
Length of Day
11h 17m
Waning Gibbous, 73% of the Moon is Illuminated
Mar 2
Waning Gibbous
Mar 4
Last Quarter
Mar 11
New
Mar 19
First Quarter
Mar 27
Full

Hourly Weather History & Observations

Time (MST) Temp. Windchill Dew Point Humidity Pressure Visibility Wind Dir Wind Speed Gust Speed Precip Events Conditions
12:52 AM 34.0 °F - 27.0 °F 75% 30.22 in 10.0 mi Calm Calm - N/A   Overcast
1:52 AM 37.0 °F 33.3 °F 28.0 °F 70% 30.21 in 10.0 mi WSW 4.6 mph - N/A   Overcast
2:52 AM 37.9 °F 34.4 °F 28.0 °F 68% 30.19 in 10.0 mi WNW 4.6 mph - N/A   Overcast
3:52 AM 37.0 °F 34.5 °F 28.0 °F 70% 30.19 in 10.0 mi West 3.5 mph - N/A   Overcast
4:52 AM 39.0 °F 36.8 °F 28.9 °F 67% 30.19 in 10.0 mi West 3.5 mph - N/A   Overcast
5:52 AM 36.0 °F 30.3 °F 28.0 °F 73% 30.22 in 10.0 mi West 6.9 mph - N/A   Clear
6:52 AM 34.0 °F 28.8 °F 28.0 °F 79% 30.23 in 10.0 mi WSW 5.8 mph - N/A   Clear
7:52 AM 39.9 °F - 30.0 °F 68% 30.22 in 10.0 mi Calm Calm - N/A   Clear
8:52 AM 46.0 °F 41.4 °F 30.0 °F 54% 30.22 in 10.0 mi West 9.2 mph - N/A   Clear
9:52 AM 51.1 °F - 28.9 °F 43% 30.20 in 10.0 mi West 10.4 mph - N/A   Clear
10:52 AM 55.0 °F - 30.0 °F 38% 30.16 in 10.0 mi NW 9.2 mph - N/A   Clear
11:52 AM 55.0 °F - 28.9 °F 37% 30.14 in 10.0 mi NW 12.7 mph 18.4 mph N/A   Mostly Cloudy
12:52 PM 57.0 °F - 28.9 °F 34% 30.09 in 10.0 mi Variable 6.9 mph - N/A   Clear
1:52 PM 60.1 °F - 28.0 °F 30% 30.05 in 10.0 mi WNW 13.8 mph - N/A   Clear
2:52 PM 59.0 °F - 28.9 °F 32% 30.04 in 10.0 mi NW 10.4 mph - N/A   Clear
3:52 PM 60.1 °F - 28.0 °F 30% 30.03 in 10.0 mi NNW 3.5 mph - N/A   Clear
4:52 PM 55.9 °F - 28.9 °F 36% 30.02 in 10.0 mi NNE 5.8 mph - N/A   Clear
5:52 PM 45.0 °F 42.6 °F 30.0 °F 56% 30.06 in 10.0 mi East 4.6 mph - N/A   Clear
6:52 PM 42.1 °F - 30.0 °F 62% 30.07 in 10.0 mi Calm Calm - N/A   Clear
7:52 PM 37.0 °F - 28.9 °F 73% 30.06 in 10.0 mi Calm Calm - N/A   Clear
8:52 PM 34.0 °F - 28.0 °F 79% 30.04 in 10.0 mi Calm Calm - N/A   Clear
9:52 PM 32.0 °F - 27.0 °F 82% 30.01 in 10.0 mi Calm Calm - N/A   Clear
11:52 PM 42.1 °F - 30.0 °F 62% 29.92 in 10.0 mi Calm Calm - N/A   Clear